Weather reports worldwide

Advertisment
Leek Thorncliffe, United Kingdom (3330): temperature & dewpoint: 13.01.2019 11:00:00 - 19.01.2019 11:00:00 (GMT)Leek Thorncliffe, United Kingdom (3330): temperature -20cm & temperature -100cm: 13.01.2019 11:00:00 - 19.01.2019 11:00:00 (GMT)Leek Thorncliffe, United Kingdom (3330): wind speed & gusts: 13.01.2019 11:00:00 - 19.01.2019 11:00:00 (GMT)Leek Thorncliffe, United Kingdom (3330): wind direction: 13.01.2019 11:00:00 - 19.01.2019 11:00:00 (GMT)Leek Thorncliffe, United Kingdom (3330): reduced air pressure: 13.01.2019 11:00:00 - 19.01.2019 11:00:00 (GMT)Leek Thorncliffe, United Kingdom (3330): visibility: 13.01.2019 11:00:00 - 19.01.2019 11:00:00 (GMT)Leek Thorncliffe, United Kingdom (3330): precipitation: 13.01.2019 11:00:00 - 19.01.2019 11:00:00 (GMT)
Date & Time tt [°C] td [°C] tt -20cm [°C] tt -100cm [°C] ff [km/h] ff [kn] fx [km/h] fx [kn] dd ppp [hPa] vv [km] rr [mm]
19.01.2019 11:00:00 0,6 0,6 - - 28 15 - - ESE 1008,8 1,7 0,8
19.01.2019 10:00:00 0,6 0,6 - - 26 14 - - SE 1008,5 2,4 1,0
19.01.2019 09:00:00 0,5 0,5 4,7 7,0 28 15 - - ESE 1008,3 2,6 0,6
19.01.2019 08:00:00 0,5 0,5 - - 28 15 - - ESE 1007,9 2,8 1,0
19.01.2019 07:00:00 0,7 0,7 - - 26 14 - - SE 1007,9 3,0 1,0
19.01.2019 06:00:00 0,8 0,7 - - 28 15 - - SE 1007,9 4,1 1,2
19.01.2019 05:00:00 0,7 0,5 - - 28 15 - - SE 1007,9 5 1,4
19.01.2019 04:00:00 0,7 0,4 - - 28 15 - - SSE 1008,3 4,7 0,2
19.01.2019 03:00:00 0,5 0,2 - - 26 14 - - SSE 1008,8 5 0,0
19.01.2019 02:00:00 0,3 0,2 - - 28 15 - - SE 1009,1 10 0,0
19.01.2019 01:00:00 0,2 0,2 - - 21 11 - - SSE 1009,5 9 0,0
19.01.2019 00:00:00 0,2 0,2 - - 26 14 - - SE 1010,0 2,5 0,0
18.01.2019 23:00:00 0,2 0,1 - - 16 9 - - SSE 1010,1 17 0,0
18.01.2019 22:00:00 0,3 -0,1 - - 18 10 - - SSE 1010,5 29 0,0
18.01.2019 21:00:00 0,0 -0,2 - - 21 11 - - SSE 1010,5 26 0,0
18.01.2019 20:00:00 -0,2 -0,3 - - 21 11 - - SSE 1010,7 5 0,0
18.01.2019 19:00:00 -0,2 -0,4 - - 16 9 - - S 1011,1 0,3 0,0
18.01.2019 18:00:00 0,0 -0,1 - - 15 8 - - SSE 1011,4 3,2 0,2
18.01.2019 17:00:00 0,2 0,0 - - 15 8 - - SSE 1011,5 1,0 0,0
18.01.2019 16:00:00 0,8 0,0 - - 16 9 - - SSE 1011,9 1,8 0,2
18.01.2019 15:00:00 1,8 -0,2 - - 16 9 - - SSE 1011,9 21 0,0
18.01.2019 14:00:00 1,8 -0,1 - - 22 12 - - S 1012,5 23 0,0
18.01.2019 13:00:00 1,4 -1,1 - - 22 12 - - SSE 1013,1 23 0,0
18.01.2019 12:00:00 1,0 -1,7 - - 22 12 46 25 SSE 1013,9 17 0,0
18.01.2019 11:00:00 0,4 -2,3 - - 21 11 - - SSE 1014,8 25 0,0
18.01.2019 10:00:00 0,0 -3,2 - - 26 14 - - SE 1015,0 30 0,0
18.01.2019 09:00:00 0,0 -3,6 4,9 7,0 22 12 - - SSE 1015,4 35 0,0
18.01.2019 08:00:00 -0,5 -3,9 - - 18 10 - - SSE 1015,6 30 0,0
18.01.2019 07:00:00 -0,7 -3,9 - - 18 10 - - SSE 1015,9 35 0,0
18.01.2019 06:00:00 -0,8 -3,8 - - 21 11 - - SSE 1016,4 24 0,0
18.01.2019 05:00:00 -1,0 -4,0 - - 13 7 - - SSE 1016,9 24 0,0
18.01.2019 04:00:00 -1,2 -4,2 - - 11 6 - - SE 1017,4 30 0,0
18.01.2019 03:00:00 -0,2 -4,1 - - 15 8 - - SE 1017,6 28 0,0
18.01.2019 02:00:00 0,4 -4,2 - - 16 9 - - ESE 1017,7 40 0,0
18.01.2019 01:00:00 -0,6 -4,0 - - 8 4 - - SE 1018,4 40 0,0
18.01.2019 00:00:00 -0,5 -4,0 - - 8 4 - - ENE 1018,8 50 0,0
17.01.2019 23:00:00 -1,1 -3,7 - - 5 3 - - NE 1019,1 35 0,0
17.01.2019 22:00:00 -1,0 -3,6 - - 4 2 - - NE 1019,0 40 0,0
17.01.2019 21:00:00 -1,4 -3,7 - - 5 3 - - NNE 1019,1 35 0,0
17.01.2019 20:00:00 -1,3 -4,0 - - 4 2 - - NNE 1018,7 40 0,0
17.01.2019 19:00:00 -1,2 -4,4 - - 4 2 - - NW 1018,5 30 0,0
17.01.2019 18:00:00 -0,4 -4,3 - - 8 4 - - N 1017,7 30 0,0
17.01.2019 17:00:00 -0,4 -3,9 - - 8 4 - - NNE 1017,5 45 0,0
17.01.2019 16:00:00 0,8 -3,9 - - 11 6 - - NW 1016,8 40 0,0
17.01.2019 15:00:00 2,2 -3,5 - - 11 6 - - NW 1015,4 40 0,0
17.01.2019 14:00:00 2,1 -4,1 - - 15 8 - - NW 1014,8 50 0,2
17.01.2019 13:00:00 1,8 -3,8 - - 8 4 - - NNW 1014,5 40 0,0
17.01.2019 12:00:00 0,8 -3,9 - - 16 9 - - NNW 1013,9 26 0,0
17.01.2019 11:00:00 0,2 -4,0 - - 15 8 - - NNW 1013,0 35 0,0
17.01.2019 10:00:00 -1,4 -4,2 - - 9 5 - - N 1012,7 35 0,0
17.01.2019 09:00:00 -2,1 -4,7 5,7 7,0 11 6 - - NNW 1011,8 40 0,0
17.01.2019 08:00:00 -1,6 -4,9 - - 18 10 - - NNW 1010,3 50 0,0
17.01.2019 07:00:00 -1,2 -3,5 - - 16 9 - - N 1009,2 50 0,0
17.01.2019 06:00:00 0,1 -1,1 - - 24 13 - - N 1007,5 50 0,0
17.01.2019 05:00:00 1,2 1,1 - - 16 9 - - N 1005,7 16 0,4
17.01.2019 04:00:00 0,8 0,7 - - 11 6 - - N 1004,8 8 0,4
17.01.2019 03:00:00 1,0 0,9 - - 11 6 - - NNW 1004,1 1,6 0,6
17.01.2019 02:00:00 1,5 1,5 - - 9 5 - - NNW 1003,4 3,3 0,0
17.01.2019 01:00:00 1,9 1,9 - - 11 6 - - NNW 1002,9 3,0 0,0
17.01.2019 00:00:00 1,9 1,9 - - 15 8 - - WNW 1002,3 1,6 0,0
16.01.2019 23:00:00 1,7 1,6 - - 8 4 - - W 1001,9 6 0,4
16.01.2019 22:00:00 1,7 1,3 - - 16 9 - - WNW 1001,8 11 0,0
16.01.2019 21:00:00 1,3 0,7 - - 11 6 - - W 1001,2 18 0,0
16.01.2019 20:00:00 1,2 0,5 - - 13 7 - - W 1000,9 21 0,0
16.01.2019 19:00:00 1,3 0,9 - - 11 6 - - WSW 1000,9 14 0,0
16.01.2019 18:00:00 1,5 1,3 - - 8 4 - - WSW 1001,2 10 0,0
16.01.2019 17:00:00 2,3 1,7 - - 11 6 - - WSW 1001,0 20 0,0
16.01.2019 16:00:00 4,2 3,2 - - 15 8 - - W 1001,0 25 0,0
16.01.2019 15:00:00 3,9 3,3 - - 15 8 - - W 1000,9 40 0,0
16.01.2019 14:00:00 3,8 3,5 - - 15 8 - - W 1001,0 20 0,6
16.01.2019 13:00:00 3,8 3,6 - - 13 7 - - NW 1001,5 13 1,4
16.01.2019 12:00:00 4,2 3,8 - - 21 11 - - WNW 1001,6 5 0,8
16.01.2019 11:00:00 4,5 4,3 - - 18 10 - - W 1001,8 7 0,8
16.01.2019 10:00:00 5,0 4,6 - - 15 8 - - WNW 1001,9 5 0,6
16.01.2019 09:00:00 6,1 5,4 6,2 7,0 24 13 - - SW 1001,3 26 0,0
16.01.2019 08:00:00 6,1 5,4 - - 24 13 - - SW 1001,9 5 0,0
16.01.2019 07:00:00 6,3 5,0 - - 21 11 - - SW 1002,3 45 0,0
16.01.2019 06:00:00 6,0 4,5 - - 24 13 - - SW 1003,1 50 0,0
16.01.2019 05:00:00 6,6 5,3 - - 24 13 - - WSW 1004,1 50 0,0
16.01.2019 04:00:00 6,8 6,4 - - 22 12 - - WSW 1005,1 50 0,0
16.01.2019 03:00:00 7,0 6,7 - - 24 13 - - W 1006,1 45 0,2
16.01.2019 02:00:00 6,9 6,5 - - 18 10 - - SW 1006,8 45 0,0
16.01.2019 01:00:00 6,6 5,8 - - 22 12 - - SW 1007,8 45 0,0
16.01.2019 00:00:00 6,8 5,6 - - 18 10 - - WSW 1008,8 50 0,0
15.01.2019 23:00:00 6,8 5,5 - - 22 12 - - SW 1009,8 50 0,0
15.01.2019 22:00:00 6,6 5,1 - - 24 13 - - WSW 1010,4 50 0,0
15.01.2019 21:00:00 6,6 4,9 - - 24 13 - - WSW 1011,2 50 0,0
15.01.2019 20:00:00 6,9 5,2 - - 24 13 - - WSW 1011,8 45 0,0
15.01.2019 19:00:00 7,0 5,6 - - 24 13 - - WSW 1012,7 50 0,0
15.01.2019 18:00:00 6,9 5,6 - - 21 11 - - WSW 1013,2 50 0,0
15.01.2019 17:00:00 6,8 5,8 - - 16 9 - - WSW 1013,4 45 0,0
15.01.2019 16:00:00 6,8 5,2 - - 18 10 - - WSW 1014,1 50 0,0
15.01.2019 15:00:00 6,9 4,7 - - 18 10 - - W 1014,6 40 0,0
15.01.2019 14:00:00 7,1 4,5 - - 18 10 - - W 1015,1 45 0,0
15.01.2019 13:00:00 7,7 3,5 - - 21 11 - - W 1015,9 35 0,0
15.01.2019 12:00:00 7,4 4,2 - - 21 11 - - W 1016,6 35 0,0
15.01.2019 11:00:00 6,8 4,1 - - 18 10 - - W 1017,2 30 0,0
15.01.2019 10:00:00 6,3 4,6 - - 16 9 - - WSW 1017,7 50 0,0
15.01.2019 09:00:00 5,9 4,7 6,0 7,0 15 8 - - WSW 1017,7 50 0,0
15.01.2019 08:00:00 6,1 4,2 - - 16 9 - - WSW 1017,4 50 0,0
15.01.2019 07:00:00 6,1 4,3 - - 18 10 - - W 1017,5 50 0,0
15.01.2019 06:00:00 5,9 4,4 - - 16 9 - - W 1017,7 50 0,0
15.01.2019 05:00:00 5,4 4,7 - - 16 9 - - W 1017,9 35 0,0
15.01.2019 04:00:00 5,1 4,7 - - 16 9 - - W 1018,8 25 0,0
15.01.2019 03:00:00 5,2 4,5 - - 16 9 - - W 1019,4 35 0,0
15.01.2019 02:00:00 4,8 4,0 - - 16 9 - - W 1019,9 16 0,0
15.01.2019 01:00:00 4,2 3,0 - - 18 10 - - W 1020,6 8 0,0
15.01.2019 00:00:00 4,6 2,5 - - 13 7 - - W 1021,0 23 0,0
14.01.2019 23:00:00 4,4 2,4 - - 16 9 - - W 1021,5 22 0,0
14.01.2019 22:00:00 4,2 2,2 - - 15 8 - - W 1021,8 27 0,0
14.01.2019 21:00:00 4,1 2,8 - - 13 7 - - W 1021,7 19 0,0
14.01.2019 20:00:00 4,4 3,7 - - 15 8 - - W 1021,9 15 0,0
14.01.2019 19:00:00 4,6 3,9 - - 16 9 - - WNW 1021,8 12 0,0
14.01.2019 18:00:00 4,9 4,2 - - 11 6 - - W 1022,1 11 0,0
14.01.2019 17:00:00 5,1 3,7 - - 13 7 - - WNW 1022,0 10 0,0
14.01.2019 16:00:00 5,4 3,7 - - 15 8 - - WNW 1022,0 16 0,0
14.01.2019 15:00:00 5,5 3,6 - - 13 7 - - NW 1021,7 22 0,0
14.01.2019 14:00:00 5,7 3,8 - - 13 7 - - NW 1021,4 17 0,0
14.01.2019 13:00:00 5,4 3,9 - - 13 7 - - NW 1021,4 16 0,2
14.01.2019 12:00:00 5,7 3,7 - - 16 9 - - NNW 1021,2 14 0,0
14.01.2019 11:00:00 5,3 3,8 - - 16 9 - - NW 1021,1 14 0,0
14.01.2019 10:00:00 4,8 3,7 - - 15 8 - - NW 1020,8 12 0,0
14.01.2019 09:00:00 4,4 3,5 6,0 7,0 15 8 - - NNW 1019,9 14 0,0
14.01.2019 08:00:00 4,6 3,6 - - 16 9 - - NW 1019,6 15 0,0
14.01.2019 07:00:00 4,8 4,0 - - 18 10 - - NW 1018,4 12 0,0
14.01.2019 06:00:00 5,0 4,2 - - 16 9 - - NW 1018,1 12 0,0
14.01.2019 05:00:00 4,8 4,0 - - 22 12 46 25 NW 1017,6 14 0,0
14.01.2019 04:00:00 5,2 4,3 - - 16 9 - - WNW 1017,6 11 0,0
14.01.2019 03:00:00 5,3 4,3 - - 21 11 46 25 NW 1016,7 11 0,0
14.01.2019 02:00:00 5,2 4,4 - - 22 12 46 25 NW 1015,3 9 0,0
14.01.2019 01:00:00 4,9 4,4 - - 28 15 52 28 NW 1014,8 9 0,4
14.01.2019 00:00:00 5,0 4,3 - - 26 14 48 26 NW 1014,6 6 0,4
13.01.2019 23:00:00 5,0 4,0 - - 24 13 50 27 NNW 1014,3 11 0,4
13.01.2019 22:00:00 5,2 3,6 - - 29 16 57 31 NNW 1013,8 4,2 0,4
13.01.2019 21:00:00 5,4 3,5 - - 24 13 59 32 NW 1012,9 13 0,2
13.01.2019 20:00:00 6,3 3,7 - - 34 18 63 34 WNW 1012,0 13 0,0
13.01.2019 19:00:00 5,9 3,3 - - 24 13 59 32 NW 1011,8 14 0,0
13.01.2019 18:00:00 6,0 4,3 - - 24 13 61 33 NW 1011,6 12 0,0
13.01.2019 17:00:00 6,5 5,1 - - 28 15 57 31 NW 1011,3 11 0,2
13.01.2019 16:00:00 7,5 6,6 - - 37 20 74 40 WNW 1010,7 1,5 0,4
13.01.2019 15:00:00 8,2 6,8 - - 39 21 70 38 WNW 1010,3 50 0,2
13.01.2019 14:00:00 8,4 7,2 - - 42 23 72 39 WNW 1010,5 50 0,0
13.01.2019 13:00:00 8,2 7,4 - - 35 19 74 40 WNW 1010,8 19 0,0
13.01.2019 12:00:00 8,0 7,6 - - 37 20 72 39 WNW 1010,9 19 0,0
13.01.2019 11:00:00 7,7 7,4 - - 35 19 67 36 WNW 1011,2 17 0,0

tt = temperature
td = dewpoint
tt -20cm = temperature -20cm
tt -100cm = temperature -100cm
ff = wind speed
fx = gusts
dd = wind direction
ppp = reduced air pressure
vv = visibility
rr = precipitation

Next stations